When you browse on this site, cookies collect data to enhance your experience and personalize the content and advertising you see.
Visit our Privacy Policy to learn more. By continuing to use the site, you agree to this use of cookies and data.
  • In Spain
  • List of Countries
  • For 7 days
  • Water Temperature
  • Weather Map
  • Weather Widgets
  • user-avatar
    Login

    Hourly Weather Muyinga

    Today, 24 February, Monday

    Time Temperature Precipitation Wind Pressure Humidity
    00:00 +18°C° 0 mm 1 mps 627 mmHg 91%
    01:00 +18°C° 0 mm 1 mps 626 mmHg 92%
    02:00 +18°C° 0 mm 1 mps 626 mmHg 93%
    03:00 +18°C° 0 mm 1 mps 626 mmHg 93%
    04:00 +18°C° 0 mm 1 mps 626 mmHg 93%
    05:00 +16°C° 0 mm 0 mps 626 mmHg 93%
    06:00 +17°C° 0 mm 0 mps 627 mmHg 91%
    07:00 +18°C° 0 mm 0 mps 628 mmHg 90%
    08:00 +18°C° 0 mm 0 mps 629 mmHg 89%
    09:00 +22°C° 0.9 mm 1 mps 629 mmHg 85%
    10:00 +23°C° 0.9 mm 1 mps 629 mmHg 80%
    11:00 +25°C° 0.9 mm 2 mps 629 mmHg 76%
    12:00 +25°C° 1.3 mm 1 mps 629 mmHg 75%
    13:00 +25°C° 1.3 mm 1 mps 628 mmHg 75%
    14:00 +25°C° 1.3 mm 1 mps 628 mmHg 74%
    15:00 +25°C° 1.5 mm 1 mps 628 mmHg 78%
    16:00 +24°C° 1.5 mm 1 mps 627 mmHg 81%
    17:00 +22°C° 1.5 mm 0 mps 627 mmHg 85%
    18:00 +22°C° 0.3 mm 1 mps 627 mmHg 87%
    19:00 +21°C° 0.3 mm 1 mps 628 mmHg 89%
    20:00 +20°C° 0.3 mm 1 mps 628 mmHg 91%
    21:00 +20°C° 0.2 mm 1 mps 628 mmHg 92%
    22:00 +19°C° 0.2 mm 1 mps 628 mmHg 94%
    23:00 +19°C° 0.2 mm 1 mps 628 mmHg 95%

    Tomorrow, 25 February, Tuesday

    Time Temperature Precipitation Wind Pressure Humidity
    00:00 +19°C° 0.1 mm 1 mps 628 mmHg 95%
    01:00 +19°C° 0.1 mm 1 mps 627 mmHg 95%
    02:00 +19°C° 0.1 mm 1 mps 627 mmHg 95%
    03:00 +19°C° 0 mm 1 mps 627 mmHg 95%
    04:00 +19°C° 0 mm 1 mps 627 mmHg 96%
    05:00 +18°C° 0 mm 1 mps 627 mmHg 96%
    06:00 +19°C° 0.1 mm 1 mps 628 mmHg 93%
    07:00 +20°C° 0.1 mm 1 mps 629 mmHg 91%
    08:00 +21°C° 0.1 mm 1 mps 629 mmHg 88%
    09:00 +21°C° 1.2 mm 2 mps 629 mmHg 86%
    10:00 +23°C° 1.2 mm 2 mps 630 mmHg 84%
    11:00 +23°C° 1.2 mm 2 mps 630 mmHg 81%
    12:00 +24°C° 1.1 mm 2 mps 629 mmHg 80%
    13:00 +24°C° 1.1 mm 1 mps 628 mmHg 79%
    14:00 +24°C° 1.1 mm 1 mps 628 mmHg 78%
    15:00 +24°C° 1 mm 1 mps 628 mmHg 81%
    16:00 +23°C° 1 mm 1 mps 627 mmHg 84%
    17:00 +23°C° 1 mm 1 mps 627 mmHg 87%
    18:00 +21°C° 0.3 mm 1 mps 627 mmHg 89%
    19:00 +20°C° 0.3 mm 1 mps 627 mmHg 91%
    20:00 +17°C° 0.3 mm 0 mps 627 mmHg 92%
    21:00 +17°C° 0.1 mm 0 mps 628 mmHg 93%
    22:00 +19°C° 0.1 mm 1 mps 628 mmHg 94%
    23:00 +19°C° 0.1 mm 1 mps 628 mmHg 94%

    Day after tomorrow, 26 February, Wednesday

    Time Temperature Precipitation Wind Pressure Humidity
    00:00 +19°C° 0.1 mm 1 mps 628 mmHg 94%
    01:00 +19°C° 0.1 mm 1 mps 627 mmHg 94%
    02:00 +19°C° 0.1 mm 1 mps 627 mmHg 93%
    03:00 +18°C° 0 mm 1 mps 627 mmHg 93%
    04:00 +16°C° 0 mm 0 mps 627 mmHg 93%
    05:00 +16°C° 0 mm 0 mps 627 mmHg 93%
    06:00 +17°C° 0 mm 0 mps 628 mmHg 92%
    07:00 +17°C° 0 mm 0 mps 628 mmHg 90%
    08:00 +18°C° 0 mm 0 mps 629 mmHg 89%
    09:00 +19°C° 0.6 mm 0 mps 629 mmHg 86%
    10:00 +22°C° 0.6 mm 1 mps 629 mmHg 84%
    11:00 +23°C° 0.6 mm 1 mps 629 mmHg 81%
    12:00 +24°C° 0.9 mm 1 mps 629 mmHg 78%
    13:00 +24°C° 0.9 mm 1 mps 628 mmHg 75%
    14:00 +25°C° 0.9 mm 2 mps 628 mmHg 72%
    15:00 +25°C° 0.6 mm 1 mps 627 mmHg 74%
    16:00 +24°C° 0.6 mm 1 mps 627 mmHg 77%
    17:00 +24°C° 0.6 mm 1 mps 627 mmHg 80%
    18:00 +22°C° 0.8 mm 1 mps 627 mmHg 83%
    19:00 +21°C° 0.8 mm 1 mps 627 mmHg 87%
    20:00 +19°C° 0.8 mm 1 mps 627 mmHg 90%
    21:00 +19°C° 0.1 mm 1 mps 627 mmHg 91%
    22:00 +19°C° 0.1 mm 1 mps 627 mmHg 91%
    23:00 +18°C° 0.1 mm 1 mps 628 mmHg 92%

    27 February, Thursday

    Time Temperature Precipitation Wind Pressure Humidity
    00:00 +18°C° 0 mm 1 mps 627 mmHg 92%
    01:00 +16°C° 0 mm 0 mps 627 mmHg 93%
    02:00 +16°C° 0 mm 0 mps 627 mmHg 93%
    03:00 +16°C° 0 mm 0 mps 627 mmHg 94%
    04:00 +18°C° 0 mm 1 mps 627 mmHg 94%
    05:00 +16°C° 0 mm 1 mps 627 mmHg 95%
    06:00 +17°C° 0 mm 0 mps 628 mmHg 92%
    07:00 +18°C° 0 mm 0 mps 629 mmHg 90%
    08:00 +19°C° 0 mm 0 mps 630 mmHg 88%
    09:00 +22°C° 0.9 mm 1 mps 630 mmHg 85%
    10:00 +23°C° 0.9 mm 2 mps 630 mmHg 82%
    11:00 +24°C° 0.9 mm 2 mps 630 mmHg 79%
    12:00 +24°C° 1.4 mm 2 mps 630 mmHg 79%
    13:00 +24°C° 1.4 mm 2 mps 629 mmHg 80%
    14:00 +24°C° 1.4 mm 2 mps 629 mmHg 80%
    15:00 +24°C° 1.5 mm 2 mps 628 mmHg 83%
    16:00 +23°C° 1.5 mm 1 mps 628 mmHg 86%
    17:00 +23°C° 1.5 mm 1 mps 627 mmHg 89%
    18:00 +22°C° 0.3 mm 1 mps 627 mmHg 89%
    19:00 +19°C° 0.3 mm 0 mps 628 mmHg 90%
    20:00 +18°C° 0.3 mm 0 mps 628 mmHg 91%
    21:00 +18°C° 0.6 mm 0 mps 628 mmHg 91%
    22:00 +17°C° 0.6 mm 0 mps 629 mmHg 92%
    23:00 +19°C° 0.6 mm 1 mps 629 mmHg 93%

    28 February, Friday

    Time Temperature Precipitation Wind Pressure Humidity
    00:00 +19°C° 0.9 mm 1 mps 629 mmHg 94%
    01:00 +17°C° 0.9 mm 0 mps 628 mmHg 95%
    02:00 +16°C° 0.9 mm 0 mps 628 mmHg 96%
    03:00 +18°C° 0.1 mm 1 mps 628 mmHg 96%
    04:00 +18°C° 0.1 mm 1 mps 628 mmHg 96%
    05:00 +18°C° 0.1 mm 1 mps 628 mmHg 96%
    06:00 +18°C° 0 mm 1 mps 628 mmHg 95%
    07:00 +18°C° 0 mm 1 mps 629 mmHg 95%
    08:00 +19°C° 0 mm 1 mps 629 mmHg 94%
    09:00 +20°C° 0.1 mm 1 mps 630 mmHg 88%
    10:00 +22°C° 0.1 mm 1 mps 630 mmHg 81%
    11:00 +24°C° 0.1 mm 1 mps 631 mmHg 75%
    12:00 +25°C° 0.6 mm 1 mps 630 mmHg 73%
    13:00 +25°C° 0.6 mm 1 mps 630 mmHg 72%
    14:00 +26°C° 0.6 mm 1 mps 629 mmHg 70%
    15:00 +25°C° 2 mm 1 mps 628 mmHg 77%
    16:00 +23°C° 2 mm 1 mps 628 mmHg 83%
    17:00 +21°C° 2 mm 1 mps 627 mmHg 90%
    18:00 +21°C° 0.4 mm 1 mps 627 mmHg 91%
    19:00 +20°C° 0.4 mm 1 mps 628 mmHg 92%
    20:00 +19°C° 0.4 mm 1 mps 628 mmHg 94%
    21:00 +19°C° 0.1 mm 1 mps 628 mmHg 94%
    22:00 +18°C° 0.1 mm 1 mps 628 mmHg 94%
    23:00 +16°C° 0.1 mm 0 mps 628 mmHg 94%

    29 February, Saturday

    Time Temperature Precipitation Wind Pressure Humidity
    00:00 +16°C° 0 mm 0 mps 627 mmHg 94%
    01:00 +16°C° 0 mm 0 mps 627 mmHg 93%
    02:00 +15°C° 0 mm 0 mps 626 mmHg 93%
    03:00 +15°C° 0 mm 0 mps 626 mmHg 93%
    04:00 +15°C° 0 mm 0 mps 626 mmHg 92%
    05:00 +15°C° 0 mm 0 mps 626 mmHg 92%
    06:00 +16°C° 0 mm 0 mps 627 mmHg 90%
    07:00 +17°C° 0 mm 0 mps 628 mmHg 89%
    08:00 +18°C° 0 mm 0 mps 629 mmHg 87%
    09:00 +20°C° 0 mm 0 mps 629 mmHg 79%
    10:00 +25°C° 0 mm 1 mps 630 mmHg 71%
    11:00 +27°C° 0 mm 1 mps 630 mmHg 63%
    12:00 +27°C° 0.3 mm 1 mps 630 mmHg 64%
    13:00 +27°C° 0.3 mm 2 mps 629 mmHg 64%
    14:00 +27°C° 0.3 mm 2 mps 628 mmHg 65%
    15:00 +26°C° 1.9 mm 2 mps 628 mmHg 72%
    16:00 +25°C° 1.9 mm 1 mps 627 mmHg 79%
    17:00 +24°C° 1.9 mm 1 mps 627 mmHg 86%
    18:00 +23°C° 0.3 mm 1 mps 627 mmHg 87%
    19:00 +21°C° 0.3 mm 1 mps 627 mmHg 88%
    20:00 +20°C° 0.3 mm 1 mps 627 mmHg 89%
    21:00 +20°C° 0.2 mm 1 mps 627 mmHg 90%
    22:00 +19°C° 0.2 mm 1 mps 627 mmHg 91%
    23:00 +17°C° 0.2 mm 0 mps 628 mmHg 92%
    Show more